Flag for U.S.A. Weather past 2 weeks in Pittsburgh, Pennsylvania, U.S.A.

Now
66 °F

Partly sunny.


Feels Like: 66 °F
Forecast: 65 / 77 °F
Wind: 6 mph from North

Location: Allegheny County Airport

Current Time: Jul 24, 2014 at 12:16:26 PM

Latest Report: Jul 24, 2014 at 11:00 AM


Visibility: 10 mi

Pressure: 30.01 "Hg

Humidity: 68%

Dew point: 55 °F

Location of PittsburghLocation

Historic Weather in Pittsburgh — Graph

°F

Pittsburgh temperature yesterday

Maximum temperature yesterday: 82 °F (at 1:53 PM)
Minimum temperature yesterday: 66 °F (at 11:53 PM)
Average temperature yesterday: 75 °F

Past Weeks' High & Low Weather Summary

 TemperatureHumidityPressure
High85 °F (Jul 12, 1:53 PM)94% (Jul 14, 7:58 AM)30.25 "Hg (Jul 14, 7:58 AM)
Low56 °F (Jul 17, 4:53 AM)37% (Jul 11, 4:53 PM)29.75 "Hg (Jul 15, 4:53 AM)
Average71 °F68%30.04 "Hg
* Reported Jul 9 11:53 AM — Jul 24 11:00 AM, Pittsburgh, Weather by CustomWeather, © 2014

Note: Actual official high and low records may vary slightly from our data, if they occured in-between our weather recording intervals... More about our weather records

Advertising

Pittsburgh weather history for previous 24 hours

 ConditionsComfort  
Time TempWeatherWind HumidityBarometerVisibility
11:00 AM
Jul 24
66 °FPartly sunny.6 mph68%30.01 "Hg10 mi
9:53 AM66 °FPassing clouds.6 mph65%30.01 "Hg10 mi
8:53 AM65 °FSunny.8 mph70%30.01 "Hg10 mi
7:53 AM63 °FSunny.3 mph81%30.00 "Hg10 mi
6:53 AM61 °FClear.6 mph87%29.98 "Hg10 mi
5:53 AM62 °FOvercast.7 mph83%29.98 "Hg10 mi
4:53 AM62 °FPartly cloudy.5 mph86%29.97 "Hg10 mi
3:53 AM64 °FOvercast.5 mph81%29.96 "Hg10 mi
2:53 AM64 °FOvercast.6 mph81%29.98 "Hg10 mi
1:53 AM64 °FOvercast.7 mph81%29.98 "Hg10 mi
12:53 AM65 °FPassing clouds.6 mph81%29.98 "Hg10 mi
11:53 PM
Jul 23
66 °FOvercast.6 mph78%29.98 "Hg10 mi
10:53 PM67 °FPassing clouds.3 mph76%29.98 "Hg10 mi
9:53 PM68 °FOvercast.6 mph78%29.98 "Hg10 mi
8:53 PM68 °FPartly sunny.10 mph78%29.96 "Hg10 mi
7:53 PM71 °FMostly cloudy.12 mph76%29.94 "Hg10 mi
6:53 PM77 °FMore clouds than sun.13 mph71%29.92 "Hg8 mi
5:53 PM82 °FScattered clouds.7 mph58%29.90 "Hg10 mi
4:53 PM81 °FPassing clouds.9 mph58%29.91 "Hg10 mi
3:53 PM82 °FScattered clouds.13 mph58%29.93 "Hg10 mi
2:53 PM82 °FBroken clouds.13 mph60%29.94 "Hg8 mi
1:53 PM82 °FScattered clouds.3 mph65%29.94 "Hg6 mi
12:53 PM80 °FBroken clouds.7 mph67%29.94 "Hg5 mi
Weather by CustomWeather, © 2014

See weather overviewHow to use our weather pages